Hourly Data Report for December 26, 2019

MUSKOKA
ONTARIO
Current Station Operator: NAVCAN

44°58'29.000" N
79°18'12.000" W
281.90 m
6115529
71532
YQA

Download Data

Hourly Data (December 2019)
Hourly Data Report for December 26, 2019
TIME
LST
Temp Definition
°C
Dew Point Definition
°C
Rel Hum Definition
%
Precip. Amount Definition
mm

Wind Dir Definition
10's deg

Wind Spd Definition
km/h
Visibility Definition
km
Stn Press Definition
kPa
Hmdx Definition


Wind Chill Definition


Weather Definition


00:00 -1.1 -3.5 84 0.0 9 9 16.1 98.54   -4 LegendNANA
01:00 -1.3 -3.5 85 0.0 8 8 16.1 98.57   -4 LegendNANA
02:00 -1.4 -3.9 83 0.0 9 8 16.1 98.66   -4 LegendNANA
03:00 -1.2 -4.4 79 0.0 10 9 16.1 98.66   -4 LegendNANA
04:00 -1.0 -4.6 77 0.0 7 8 16.1 98.69   -4 LegendNANA
05:00 -1.0 -4.8 76 0.0 9 8 16.1 98.69   -4 LegendNANA
06:00 -1.1 -5.0 75 0.0 11 9 16.1 98.71   -4 LegendNANA
07:00 -1.2 -5.4 73 0.0 11 9 16.1 98.71   -4 LegendNANA
08:00 -1.2 -5.6 72 0.0 11 13 16.1 98.66   -5 LegendNANA
09:00 -0.8 -5.8 69 0.0 11 11 16.1 98.75   -5 LegendNANA
10:00 -0.4 -5.6 68 0.0 12 17 16.1 98.73   -5 LegendNANA
11:00 -0.1 -5.3 68 0.0 12 21 16.1 98.64   -6 LegendNANA
12:00 0.1 -4.9 69 0.0 12 21 16.1 98.54     Rain
13:00 0.7 -4.5 68 0.0 13 17 16.1 98.44     LegendNANA
14:00 1.1 -4.0 69 0.0 11 13 16.1 98.40     LegendNANA
15:00 1.3 -3.6 70 0.0 12 15 16.1 98.40     LegendNANA
16:00 1.6 -3.5 69 0.0 12 18 16.1 98.39     LegendNANA
17:00 1.4 -3.1 72 0.0 12 18 16.1 98.40     LegendNANA
18:00 1.4 -3.1 72 0.0 13 22 16.1 98.36     LegendNANA
19:00 1.4 -2.9 73 0.0 12 11 16.1 98.35     LegendNANA
20:00 1.3 -2.6 75 0.0 13 15 16.1 98.32     LegendNANA
21:00 1.5 -1.6 80 0.0 12 11 16.1 98.32     LegendNANA
22:00 1.2 -0.4 89 0.0 12 13 16.1 98.30     LegendNANA
23:00 0.9 0.5 97 0.0 12 9 2.8 98.30     Fog

Notes on Data Quality.

Legend

  • E = Estimated
  • M = Missing
  • NA = Not Available*
  • [empty] = Indicates an unobserved value
Date modified: